Location: Bakov nad Jizerou
(50.4784°N, 14.9394°E)
Time: 19:42:05
(UTC+00:00)

Cosmos 1703 - Pass Details

Date: 30 October 2021
Orbit: 521 x 539 km, 82.5° (Epoch: 01 December)

Event Time Altitude Azimuth Distance (km) Brightness Sun altitude
Rises 04:06:53 0° 158° (SSE) 2,685 7.2 -16.5°
Reaches altitude 10° 04:09:16 10° 146° (SE) 1,797 6.4 -16.1°
Maximum altitude 04:12:33 26° 89° (E) 1,099 5.7 -15.6°
Drops below altitude 10° 04:15:51 10° 33° (NNE) 1,804 6.3 -15.1°
Sets 04:18:15 0° 21° (NNE) 2,698 7.1 -14.7°
